Regional Weather Roundup
Issued by NWS Upton, NY

Current Version | Previous Version | Text Only | Print | Product List | Glossary On
Versions: 1 2 3 4 5 6 7 8 9 10 11 12 13 14 15 16 17 18 19 20 21 22 23 24 25 26 27 28 29 30 31 32 33 34 35 36 37 38 39 40 41 42 43 44 45 46 47 48 49 50
000
ASUS41 KOKX 061008
RWROKX

REGIONAL WEATHER ROUNDUP
NATIONAL WEATHER SERVICE NEW YORK NY
600 AM EDT MON JUL 06 2015

NOTE: "FAIR" INDICATES FEW OR NO CLOUDS BELOW 12,000 FEET WITH NO
SIGNIFICANT WEATHER AND/OR OBSTRUCTIONS TO VISIBILITY.

NYZ071-072-176-178-NJZ106-104-061100-
NEW YORK CITY METRO AREA


CITY           SKY/WX    TMP DP  RH WIND       PRES   REMARKS
CENTRAL PARK   MOCLDY    72  66  81 CALM      30.18R
LAGUARDIA APRT MOCLDY    73  66  78 S5        30.14S
KENNEDY INTL   CLOUDY    70  66  87 SW6       30.16R
NEWARK/LIBERTY MOCLDY    71  67  87 CALM      30.15R
BRNX BOT. GARD   N/A     66  64  94 NE2       30.17R
TETERBORO      MOCLDY    69  64  84 CALM      30.14R
$$

NYZ177-179-078>081-061100-
LONG ISLAND NEW YORK

CITY           SKY/WX    TMP DP  RH WIND       PRES   REMARKS
FARMINGDALE    MOCLDY    68  65  90 CALM      30.16R
ISLIP          MOCLDY    68  66  93 CALM      30.15R FOG
SHIRLEY        MOCLDY    66  64  93 CALM      30.17R FOG
WESTHAMPTON    FOG       59  59 100 CALM      30.18R VSB 1/4
MONTAUK POINT    N/A     67  65  93 CALM      30.18R
$$

NYZ052-065-067-061100-
HUDSON VALLEY

CITY           SKY/WX    TMP DP  RH WIND       PRES   REMARKS
WHITE PLAINS   MOCLDY    64  63  96 CALM      30.16R FOG
NEWBURGH       PTCLDY    63  61  94 CALM      30.17S
MONTGOMERY     FOG       60  59  96 CALM      30.16R VSB 1/4
POUGHKEEPSIE   PTCLDY    59  57  93 CALM      30.15S
ALBANY         MOCLDY    58  55  90 SW3       30.16S
$$

NJZ001-105-106-008-010-013-015-019>022-104-061100-
NEW JERSEY

CITY           SKY/WX    TMP DP  RH WIND       PRES   REMARKS
NEWARK/LIBERTY MOCLDY    71  67  87 CALM      30.15R
TETERBORO      MOCLDY    69  64  84 CALM      30.14R
CALDWELL       MOCLDY    64  61  90 CALM      30.16R
MORRISTOWN     CLOUDY    63  59  88 CALM      30.15S FOG
SOMERVILLE     CLOUDY    63  60  90 MISG      30.13S FOG
SUSSEX         CLOUDY    60  58  92 CALM      30.16S FOG
ANDOVER          N/A     61  60  97 CALM      30.16S
TRENTON        MOCLDY    69  66  90 CALM      30.14S
MILLVILLE      CLOUDY    70  68  93 E3        30.14S FOG
ATLANTIC CITY  CLOUDY    69  66  90 CALM      30.15R
WRIGHTSTOWN    MOCLDY    66  65  99 CALM      30.13S
TOMS RIVER     MOCLDY    64  61  88 CALM      30.15F
BELMAR         MOCLDY    68  63  83 CALM      30.16R
$$

PAZ047>061-062-071-061100-
EASTERN PENNSYLVANIA

CITY           SKY/WX    TMP DP  RH WIND       PRES   REMARKS
PHILADELPHIA   CLOUDY    72  68  87 E5        30.14S
ALLENTOWN      CLOUDY    66  63  90 NE3       30.15S FOG
SCRANTON       MOCLDY    62  58  86 E6        30.16S
$$

CTZ002-004>006-009-010-012-RIZ004-006-007-MAZ004-011-015-061100-
SOUTHERN NEW ENGLAND
 IN CT

CITY           SKY/WX    TMP DP  RH WIND       PRES   REMARKS
BRADLEY INTL   MOCLDY    61  58  90 CALM      30.16R
HARTFORD       PTCLDY    63  62  97 SE7       30.16R FOG
DANBURY        PTCLDY    60  56  86 CALM      30.18R FOG
WTRBRY/OXFORD  CLEAR     61  55  82 CALM      30.19R
BRIDGEPORT     MOCLDY    67  63  87 N3        30.16R
MERIDEN        MOCLDY    61  58  90 CALM      30.17R FOG
NEW HAVEN      MOCLDY    62  60  93 CALM      30.16R
CHESTER        FAIR      63  63 100 CALM      30.18R
GROTON         PTCLDY    62  61  96 CALM      30.16R FOG
WILLIMANTIC    MOCLDY    61  59  93 CALM      30.17R FOG

 IN RI

CITY           SKY/WX    TMP DP  RH WIND       PRES   REMARKS
PROVIDENCE     MOCLDY    64  61  90 CALM      30.17
BLOCK ISLAND   PTCLDY    64  63  94 W6        30.17R
WESTERLY       PTCLDY    60  58  92 CALM      30.17R FOG

 IN MA

CITY           SKY/WX    TMP DP  RH WIND       PRES   REMARKS
BOSTON         PTCLDY    70  60  70 W5        30.15R
WORCESTER      PTCLDY    65  58  78 NW7       30.18R
WESTFIELD      PTCLDY    59  57  93 CALM      30.16S
PROVINCETOWN   CLEAR     61   7  11 W3        30.15R
NANTUCKET      PTCLDY    64  62  93 SW6       30.16R FOG
$$

ANZ330-335-338-340-345-350-353-355-061100-
COASTAL MARINE OBSERVATIONS


STATION/POSITION TIME  SKY/WX   TEMP    WIND        PRES    VSBY  WAVE
                                AIR SEA DIR/SP/G                  HT/PER
                 (UTC)          (F)     (DEG/KT/KT) (MB)    (MI)  (FT/S)
NY HARB ENTRANCE 0950            71 70  220/  4/  6 1020.7          2/ 7
4S FIRE IS       0903               70                N/A           3/ 7
20S FIRE ISLAND  0950            70 69  190/  4/  6 1021.2          2/ 8
GREAT SOUTH BAY  0900            72 75  250/ 10/ 10   N/A
23SW MTP         0950            69 69  230/  6/  8 1021.4          2/ 8
HUDSON CANYON    NOT AVBL
KINGS POINT      0900            70 67  160/  4/  4 1020.2
CENTRAL LI SOUND NOT AVBL
EASTERN LI SOUND 0900            65 63  190/  2/  4   N/A
ROBBINS REEF     0900            70     170/  4/  4 1019.5
$$


>>>>>>>>>>>>>>>>>>>>>>>>>>>> KEY <<<<<<<<<<<<<<<<<<<<<<<<<<<
>                                                          <
>     SKY/WX - SKY CONDITION/PRESENT WEATHER               <
>     TMP    - TEMPERATURE IN FAHRENHEIT                   <
>     DP     - DEWPOINT IN FAHRENHEIT                      <
>     RH     - RELATIVE HUMIDITY IN PERCENT                <
>     WIND   - DIRECTION AND SPEED IN MPH                  <
>     PRES   - MEAN SEA LEVEL PRESSURE IN INCHES OF HG     <
>     WCI    - WIND CHILL INDEX                            <
>     VSB    - VISIBILITY IN MILES                         <
>     HX     - HEAT INDEX                                  <
>     TC     - TEMPERATURE IN CELSIUS                      <
>     VRB    - VARIABLE WIND DIRECTION                     <
>                                                          <
>>>>>>>>>>>>>>>>>>>>>>>>>>>> KEY <<<<<<<<<<<<<<<<<<<<<<<<<<<





USA.gov is the U.S. government's official web portal to all federal, state and local government web resources and services.